When you browse on this site, cookies collect data to enhance your experience and personalize the content and advertising you see.
Visit our Privacy Policy to learn more. By continuing to use the site, you agree to this use of cookies and data.
  • In United Kingdom
  • List of Countries
  • For 7 days
  • Water Temperature
  • Satellite Maps
  • Weather Map
  • Weather Widgets
  • user-avatar
    Login

    Hourly Weather Navoiy

    Today, 19 May, Sunday

    Time Temperature Precipitation Wind Pressure Humidity
    00:00 +23°C° 0 mm 2 mps 727 mmHg 44%
    01:00 +21°C° 0 mm 2 mps 726 mmHg 47%
    02:00 +21°C° 0 mm 2 mps 726 mmHg 48%
    03:00 +20°C° 0 mm 2 mps 726 mmHg 50%
    04:00 +20°C° 0 mm 2 mps 726 mmHg 52%
    05:00 +21°C° 0 mm 2 mps 727 mmHg 49%
    06:00 +23°C° 0 mm 2 mps 727 mmHg 46%
    07:00 +24°C° 0 mm 2 mps 727 mmHg 43%
    08:00 +25°C° 0 mm 2 mps 727 mmHg 40%
    09:00 +26°C° 0 mm 1 mps 727 mmHg 36%
    10:00 +25°C° 0 mm 0 mps 728 mmHg 33%
    11:00 +28°C° 0 mm 1 mps 728 mmHg 31%
    12:00 +29°C° 0 mm 1 mps 727 mmHg 30%
    13:00 +29°C° 0 mm 2 mps 727 mmHg 28%
    14:00 +30°C° 0 mm 2 mps 727 mmHg 27%
    15:00 +30°C° 0 mm 3 mps 727 mmHg 26%
    16:00 +31°C° 0 mm 3 mps 727 mmHg 25%
    17:00 +30°C° 0 mm 3 mps 727 mmHg 26%
    18:00 +29°C° 0 mm 3 mps 727 mmHg 28%
    19:00 +29°C° 0 mm 3 mps 727 mmHg 29%
    20:00 +28°C° 0 mm 3 mps 727 mmHg 30%
    21:00 +27°C° 0 mm 3 mps 727 mmHg 32%
    22:00 +27°C° 0 mm 3 mps 727 mmHg 33%
    23:00 +26°C° 0 mm 3 mps 727 mmHg 35%

    Tomorrow, 20 May, Monday

    Time Temperature Precipitation Wind Pressure Humidity
    00:00 +25°C° 0 mm 4 mps 726 mmHg 37%
    01:00 +25°C° 0 mm 4 mps 726 mmHg 39%
    02:00 +23°C° 0 mm 4 mps 726 mmHg 40%
    03:00 +23°C° 0 mm 4 mps 726 mmHg 42%
    04:00 +22°C° 0 mm 4 mps 726 mmHg 43%
    05:00 +23°C° 0 mm 4 mps 726 mmHg 41%
    06:00 +25°C° 0 mm 4 mps 726 mmHg 39%
    07:00 +26°C° 0 mm 5 mps 726 mmHg 37%
    08:00 +28°C° 0 mm 5 mps 726 mmHg 33%
    09:00 +30°C° 0 mm 4 mps 726 mmHg 29%
    10:00 +32°C° 0 mm 4 mps 726 mmHg 25%
    11:00 +33°C° 0 mm 4 mps 725 mmHg 22%
    12:00 +34°C° 0 mm 5 mps 725 mmHg 20%
    13:00 +35°C° 0 mm 5 mps 725 mmHg 18%
    14:00 +35°C° 0 mm 5 mps 724 mmHg 17%
    15:00 +36°C° 0 mm 4 mps 724 mmHg 16%
    16:00 +36°C° 0 mm 4 mps 724 mmHg 15%
    17:00 +35°C° 0 mm 3 mps 724 mmHg 16%
    18:00 +34°C° 0 mm 2 mps 724 mmHg 18%
    19:00 +32°C° 0 mm 2 mps 723 mmHg 20%
    20:00 +31°C° 0 mm 2 mps 723 mmHg 20%
    21:00 +30°C° 0 mm 3 mps 723 mmHg 20%
    22:00 +30°C° 0 mm 3 mps 723 mmHg 20%
    23:00 +29°C° 0 mm 3 mps 723 mmHg 23%

    Day after tomorrow, 21 May, Tuesday

    Time Temperature Precipitation Wind Pressure Humidity
    00:00 +28°C° 0 mm 4 mps 723 mmHg 26%
    01:00 +27°C° 0 mm 4 mps 722 mmHg 29%
    02:00 +27°C° 0 mm 4 mps 722 mmHg 30%
    03:00 +26°C° 0 mm 4 mps 722 mmHg 31%
    04:00 +26°C° 0 mm 4 mps 722 mmHg 32%
    05:00 +27°C° 0 mm 4 mps 723 mmHg 29%
    06:00 +28°C° 0 mm 5 mps 723 mmHg 26%
    07:00 +29°C° 0 mm 5 mps 723 mmHg 23%
    08:00 +32°C° 0 mm 5 mps 724 mmHg 21%
    09:00 +34°C° 0 mm 6 mps 724 mmHg 18%
    10:00 +36°C° 0 mm 7 mps 724 mmHg 15%
    11:00 +38°C° 0 mm 7 mps 724 mmHg 14%
    12:00 +39°C° 0 mm 7 mps 724 mmHg 13%
    13:00 +39°C° 0 mm 6 mps 724 mmHg 11%
    14:00 +38°C° 0 mm 7 mps 724 mmHg 15%
    15:00 +37°C° 0 mm 8 mps 724 mmHg 19%
    16:00 +34°C° 0 mm 9 mps 724 mmHg 23%
    17:00 +33°C° 0 mm 8 mps 725 mmHg 24%
    18:00 +33°C° 0 mm 7 mps 725 mmHg 25%
    19:00 +32°C° 0 mm 6 mps 725 mmHg 26%
    20:00 +30°C° 0 mm 6 mps 726 mmHg 24%
    21:00 +29°C° 0 mm 7 mps 726 mmHg 21%
    22:00 +28°C° 0 mm 8 mps 727 mmHg 18%
    23:00 +27°C° 0 mm 8 mps 727 mmHg 19%

    22 May, Wednesday

    Time Temperature Precipitation Wind Pressure Humidity
    00:00 +26°C° 0 mm 8 mps 727 mmHg 19%
    01:00 +24°C° 0 mm 8 mps 727 mmHg 20%
    02:00 +23°C° 0 mm 8 mps 727 mmHg 20%
    03:00 +22°C° 0 mm 7 mps 727 mmHg 20%
    04:00 +21°C° 0 mm 7 mps 727 mmHg 20%
    05:00 +22°C° 0 mm 7 mps 728 mmHg 21%
    06:00 +22°C° 0 mm 7 mps 728 mmHg 21%
    07:00 +22°C° 0 mm 7 mps 729 mmHg 21%
    08:00 +24°C° 0 mm 6 mps 729 mmHg 19%
    09:00 +26°C° 0 mm 6 mps 729 mmHg 18%
    10:00 +27°C° 0 mm 6 mps 729 mmHg 17%
    11:00 +28°C° 0 mm 6 mps 729 mmHg 15%
    12:00 +28°C° 0 mm 6 mps 729 mmHg 13%
    13:00 +29°C° 0 mm 7 mps 729 mmHg 11%
    14:00 +29°C° 0 mm 7 mps 729 mmHg 12%
    15:00 +29°C° 0 mm 8 mps 728 mmHg 12%
    16:00 +29°C° 0 mm 9 mps 728 mmHg 13%
    17:00 +27°C° 0 mm 9 mps 728 mmHg 13%
    18:00 +26°C° 0 mm 9 mps 728 mmHg 14%
    19:00 +24°C° 0 mm 9 mps 728 mmHg 15%
    20:00 +23°C° 0 mm 8 mps 728 mmHg 15%
    21:00 +23°C° 0 mm 8 mps 728 mmHg 16%
    22:00 +22°C° 0 mm 8 mps 728 mmHg 17%
    23:00 +21°C° 0 mm 8 mps 728 mmHg 17%

    23 May, Thursday

    Time Temperature Precipitation Wind Pressure Humidity
    00:00 +21°C° 0 mm 7 mps 727 mmHg 18%
    01:00 +20°C° 0 mm 7 mps 727 mmHg 19%
    02:00 +18°C° 0 mm 7 mps 727 mmHg 20%
    03:00 +18°C° 0 mm 7 mps 726 mmHg 20%
    04:00 +17°C° 0 mm 6 mps 726 mmHg 21%
    05:00 +18°C° 0 mm 7 mps 726 mmHg 21%
    06:00 +20°C° 0 mm 7 mps 726 mmHg 20%
    07:00 +21°C° 0 mm 7 mps 727 mmHg 20%
    08:00 +23°C° 0 mm 7 mps 726 mmHg 18%
    09:00 +26°C° 0 mm 7 mps 726 mmHg 16%
    10:00 +28°C° 0 mm 7 mps 726 mmHg 14%
    11:00 +29°C° 0 mm 7 mps 726 mmHg 13%
    12:00 +30°C° 0 mm 6 mps 725 mmHg 12%
    13:00 +32°C° 0 mm 6 mps 725 mmHg 11%
    14:00 +32°C° 0 mm 6 mps 725 mmHg 11%
    15:00 +32°C° 0 mm 6 mps 725 mmHg 11%
    16:00 +32°C° 0 mm 6 mps 724 mmHg 12%
    17:00 +30°C° 0 mm 6 mps 724 mmHg 13%
    18:00 +29°C° 0 mm 5 mps 724 mmHg 15%
    19:00 +28°C° 0 mm 5 mps 724 mmHg 17%
    20:00 +27°C° 0 mm 5 mps 724 mmHg 17%
    21:00 +27°C° 0 mm 5 mps 724 mmHg 18%
    22:00 +26°C° 0 mm 5 mps 725 mmHg 19%
    23:00 +26°C° 0 mm 5 mps 724 mmHg 20%

    24 May, Friday

    Time Temperature Precipitation Wind Pressure Humidity
    00:00 +25°C° 0 mm 4 mps 724 mmHg 20%
    01:00 +25°C° 0 mm 4 mps 724 mmHg 21%
    02:00 +23°C° 0 mm 4 mps 724 mmHg 21%
    03:00 +23°C° 0 mm 4 mps 724 mmHg 22%
    04:00 +23°C° 0 mm 5 mps 723 mmHg 23%
    05:00 +25°C° 0 mm 5 mps 724 mmHg 22%
    06:00 +26°C° 0 mm 6 mps 724 mmHg 22%
    07:00 +27°C° 0 mm 7 mps 724 mmHg 22%
    08:00 +28°C° 0 mm 6 mps 724 mmHg 21%
    09:00 +30°C° 0 mm 6 mps 724 mmHg 19%
    10:00 +32°C° 0 mm 6 mps 724 mmHg 18%
    11:00 +32°C° 0 mm 5 mps 724 mmHg 17%
    12:00 +32°C° 0 mm 5 mps 724 mmHg 16%
    13:00 +30°C° 0 mm 4 mps 723 mmHg 15%
    14:00 +30°C° 0 mm 5 mps 723 mmHg 17%
    15:00 +29°C° 0 mm 5 mps 723 mmHg 18%
    16:00 +29°C° 0 mm 6 mps 723 mmHg 20%
    17:00 +28°C° 0 mm 5 mps 724 mmHg 21%
    18:00 +28°C° 0 mm 4 mps 724 mmHg 22%
    19:00 +27°C° 0 mm 3 mps 724 mmHg 23%
    20:00 +27°C° 0 mm 3 mps 724 mmHg 22%
    21:00 +27°C° 0 mm 3 mps 725 mmHg 21%
    22:00 +27°C° 0 mm 3 mps 725 mmHg 20%
    23:00 +26°C° 0 mm 3 mps 725 mmHg 19%
    Show more